Time,TemperatureF,DewpointF,PressureIn,WindDirection,WindDirectionDegrees,WindSpeedMPH,WindSpeedGustMPH,Humidity,HourlyPrecipIn,Conditions,Clouds,dailyrainin,SoftwareType,DateUTC
2013-03-26 00:02:00,-999.0,-99.9,30.07,NNW,333,4.0,5.0,-999,-99.99,,,-99.99,,2013-03-26 08:02:00,
2013-03-26 00:13:00,-9.0,-99.9,30.07,North,1,4.0,6.0,-999,-99.99,,,-99.99,,2013-03-26 08:13:00,
2013-03-26 00:22:00,-999.0,-99.9,30.08,West,266,3.0,5.0,-999,-99.99,,,-99.99,,2013-03-26 08:22:00,
2013-03-26 00:32:00,-999.0,-99.9,30.07,NW,304,4.0,5.0,-999,-99.99,,,-99.99,,2013-03-26 08:32:00,
2013-03-26 00:42:00,-14.0,-99.9,30.08,West,267,5.0,5.0,-999,-99.99,,,-99.99,,2013-03-26 08:42:00,
2013-03-26 00:52:00,-999.0,-99.9,30.08,NW,323,3.0,6.0,-999,-99.99,,,-99.99,,2013-03-26 08:52:00,
2013-03-26 01:02:00,-999.0,-99.9,30.08,NW,317,4.0,5.0,-999,-99.99,,,-99.99,,2013-03-26 09:02:00,
2013-03-26 01:12:00,-15.0,-99.9,30.08,NW,319,4.0,5.0,-999,-99.99,,,-99.99,,2013-03-26 09:12:00,
2013-03-26 01:22:00,-999.0,-99.9,30.08,NW,309,3.0,4.0,-999,-99.99,,,-99.99,,2013-03-26 09:22:00,
2013-03-26 01:33:00,-999.0,-99.9,30.08,NNW,344,6.0,6.0,-999,-99.99,,,-99.99,,2013-03-26 09:33:00,
2013-03-26 01:43:00,-999.0,-99.9,30.08,WNW,297,6.0,7.0,-999,-99.99,,,-99.99,,2013-03-26 09:43:00,
2013-03-26 01:52:00,-999.0,-99.9,30.08,NW,304,11.0,11.0,-999,-99.99,,,-99.99,,2013-03-26 09:52:00,
2013-03-26 02:03:00,-999.0,-99.9,30.09,NNW,328,8.0,10.0,-999,-99.99,,,-99.99,,2013-03-26 10:03:00,
2013-03-26 02:12:00,-13.0,-99.9,30.08,NW,307,9.0,10.0,-999,-99.99,,,-99.99,,2013-03-26 10:12:00,
2013-03-26 02:23:00,-999.0,-99.9,30.08,NW,314,6.0,8.0,-999,-99.99,,,-99.99,,2013-03-26 10:23:00,
2013-03-26 02:33:00,-999.0,-99.9,30.09,North,7,3.0,5.0,-999,-99.99,,,-99.99,,2013-03-26 10:33:00,
2013-03-26 02:43:00,-13.0,-99.9,30.09,ESE,110,2.0,6.0,-999,-99.99,,,-99.99,,2013-03-26 10:43:00,
2013-03-26 02:53:00,-999.0,-99.9,30.09,West,278,3.0,4.0,-999,-99.99,,,-99.99,,2013-03-26 10:53:00,
2013-03-26 03:03:00,-999.0,-99.9,30.09,NW,307,10.0,11.0,-999,-99.99,,,-99.99,,2013-03-26 11:03:00,
2013-03-26 03:12:00,-12.0,-99.9,30.09,NW,326,7.0,10.0,-999,-99.99,,,-99.99,,2013-03-26 11:12:00,
2013-03-26 03:23:00,-999.0,-99.9,30.10,West,271,4.0,4.0,-999,-99.99,,,-99.99,,2013-03-26 11:23:00,
2013-03-26 03:33:00,-999.0,-99.9,30.10,WNW,288,5.0,7.0,-999,-99.99,,,-99.99,,2013-03-26 11:33:00,
2013-03-26 03:43:00,-13.0,-99.9,30.09,WNW,295,5.0,6.0,-999,-99.99,,,-99.99,,2013-03-26 11:43:00,
2013-03-26 03:52:00,-999.0,-99.9,30.10,NNW,336,2.0,3.0,-999,-99.99,,,-99.99,,2013-03-26 11:52:00,
2013-03-26 04:03:00,-999.0,-99.9,30.10,NNW,336,2.0,3.0,-999,-99.99,,,-99.99,,2013-03-26 12:03:00,
2013-03-26 04:12:00,-999.0,-99.9,30.10,East,79,0.0,1.0,-999,-99.99,,,-99.99,,2013-03-26 12:12:00,
2013-03-26 04:22:00,-999.0,-99.9,30.10,West,276,1.0,3.0,-999,-99.99,,,-99.99,,2013-03-26 12:22:00,
2013-03-26 04:32:00,-999.0,-99.9,30.10,WSW,247,2.0,4.0,-999,-99.99,,,-99.99,,2013-03-26 12:32:00,
2013-03-26 04:43:00,-13.0,-99.9,30.10,WSW,241,5.0,7.0,-999,-99.99,,,-99.99,,2013-03-26 12:43:00,
2013-03-26 04:52:00,-999.0,-99.9,30.10,WSW,251,6.0,7.0,-999,-99.99,,,-99.99,,2013-03-26 12:52:00,
2013-03-26 05:03:00,-999.0,-99.9,30.11,NW,320,2.0,4.0,-999,-99.99,,,-99.99,,2013-03-26 13:03:00,
2013-03-26 05:12:00,-12.0,-99.9,30.10,North,1,2.0,4.0,-999,-99.99,,,-99.99,,2013-03-26 13:12:00,
2013-03-26 05:23:00,-999.0,-99.9,30.11,NW,312,4.0,4.0,-999,-99.99,,,-99.99,,2013-03-26 13:23:00,
2013-03-26 05:32:00,-999.0,-99.9,30.11,NW,320,3.0,3.0,-999,-99.99,,,-99.99,,2013-03-26 13:32:00,
2013-03-26 05:42:00,-14.0,-99.9,30.11,NW,326,6.0,7.0,-999,-99.99,,,-99.99,,2013-03-26 13:42:00,
2013-03-26 05:52:00,-999.0,-99.9,30.11,NE,40,2.0,6.0,-999,-99.99,,,-99.99,,2013-03-26 13:52:00,
2013-03-26 06:02:00,-999.0,-99.9,30.11,NNW,346,3.0,4.0,-999,-99.99,,,-99.99,,2013-03-26 14:02:00,
2013-03-26 06:12:00,-13.0,-99.9,30.11,NW,326,3.0,4.0,-999,-99.99,,,-99.99,,2013-03-26 14:12:00,
2013-03-26 06:23:00,-999.0,-99.9,30.11,West,275,3.0,6.0,-999,-99.99,,,-99.99,,2013-03-26 14:23:00,
2013-03-26 06:33:00,-999.0,-99.9,30.11,NNW,331,1.0,3.0,-999,-99.99,,,-99.99,,2013-03-26 14:33:00,
2013-03-26 06:42:00,-999.0,-99.9,30.11,NNW,331,4.0,4.0,-999,-99.99,,,-99.99,,2013-03-26 14:42:00,
2013-03-26 06:53:00,-999.0,-99.9,30.11,NNW,333,3.0,4.0,-999,-99.99,,,-99.99,,2013-03-26 14:53:00,
2013-03-26 07:02:00,-999.0,-99.9,30.11,West,263,7.0,8.0,-999,-99.99,,,-99.99,,2013-03-26 15:02:00,
2013-03-26 07:12:00,-14.0,-99.9,30.12,NNE,12,1.0,7.0,-999,-99.99,,,-99.99,,2013-03-26 15:12:00,
2013-03-26 07:22:00,-999.0,-99.9,30.11,West,279,5.0,5.0,-999,-99.99,,,-99.99,,2013-03-26 15:22:00,
2013-03-26 07:33:00,-999.0,-99.9,30.11,West,274,1.0,4.0,-999,-99.99,,,-99.99,,2013-03-26 15:33:00,
2013-03-26 07:43:00,-15.0,-99.9,30.11,WNW,298,4.0,5.0,-999,-99.99,,,-99.99,,2013-03-26 15:43:00,
2013-03-26 07:53:00,-999.0,-99.9,30.11,NW,308,3.0,6.0,-999,-99.99,,,-99.99,,2013-03-26 15:53:00,
2013-03-26 08:03:00,-999.0,-99.9,30.11,North,5,5.0,6.0,-999,-99.99,,,-99.99,,2013-03-26 16:03:00,
2013-03-26 08:13:00,-15.0,-99.9,30.12,ENE,59,4.0,5.0,-999,-99.99,,,-99.99,,2013-03-26 16:13:00,
2013-03-26 08:23:00,-999.0,-99.9,30.12,West,277,5.0,6.0,-999,-99.99,,,-99.99,,2013-03-26 16:23:00,
2013-03-26 08:33:00,-999.0,-99.9,30.12,West,279,7.0,10.0,-999,-99.99,,,-99.99,,2013-03-26 16:33:00,
2013-03-26 08:43:00,-14.0,-99.9,30.12,WNW,294,8.0,9.0,-999,-99.99,,,-99.99,,2013-03-26 16:43:00,
2013-03-26 08:54:00,-999.0,-99.9,30.13,NNW,331,6.0,7.0,-999,-99.99,,,-99.99,,2013-03-26 16:54:00,
2013-03-26 09:03:00,-999.0,-99.9,30.13,NW,318,5.0,6.0,-999,-99.99,,,-99.99,,2013-03-26 17:03:00,
2013-03-26 09:12:00,-999.0,-99.9,30.13,NW,309,5.0,5.0,-999,-99.99,,,-99.99,,2013-03-26 17:12:00,
2013-03-26 09:23:00,-999.0,-99.9,30.13,NW,313,6.0,7.0,-999,-99.99,,,-99.99,,2013-03-26 17:23:00,
2013-03-26 09:33:00,-999.0,-99.9,30.13,NW,317,6.0,7.0,-999,-99.99,,,-99.99,,2013-03-26 17:33:00,
2013-03-26 09:42:00,-999.0,-99.9,30.13,NW,321,3.0,7.0,-999,-99.99,,,-99.99,,2013-03-26 17:42:00,
2013-03-26 09:53:00,-999.0,-99.9,30.13,NNE,26,4.0,5.0,-999,-99.99,,,-99.99,,2013-03-26 17:53:00,
2013-03-26 10:03:00,-999.0,-99.9,30.13,NE,44,4.0,5.0,-999,-99.99,,,-99.99,,2013-03-26 18:03:00,
2013-03-26 10:12:00,-13.0,-99.9,30.13,NE,34,4.0,5.0,-999,-99.99,,,-99.99,,2013-03-26 18:12:00,
2013-03-26 10:23:00,-999.0,-99.9,30.13,SW,230,1.0,4.0,-999,-99.99,,,-99.99,,2013-03-26 18:23:00,
2013-03-26 10:34:00,-999.0,-99.9,30.14,WSW,247,3.0,4.0,-999,-99.99,,,-99.99,,2013-03-26 18:34:00,
2013-03-26 10:42:00,-11.0,-99.9,30.14,NW,306,3.0,4.0,-999,-99.99,,,-99.99,,2013-03-26 18:42:00,
2013-03-26 10:53:00,-999.0,-99.9,30.14,NW,306,2.0,4.0,-999,-99.99,,,-99.99,,2013-03-26 18:53:00,
2013-03-26 11:03:00,-999.0,-99.9,30.14,NW,305,3.0,4.0,-999,-99.99,,,-99.99,,2013-03-26 19:03:00,
2013-03-26 11:12:00,-13.0,-99.9,30.14,NW,316,4.0,5.0,-999,-99.99,,,-99.99,,2013-03-26 19:12:00,
2013-03-26 11:23:00,-13.0,-99.9,30.14,NW,316,4.0,5.0,-999,-99.99,,,-99.99,,2013-03-26 19:23:00,
2013-03-26 11:33:00,-13.0,-99.9,30.14,NW,316,4.0,5.0,-999,-99.99,,,-99.99,,2013-03-26 19:33:00,
2013-03-26 11:42:00,-999.0,-99.9,30.15,WNW,291,6.0,7.0,-999,-99.99,,,-99.99,,2013-03-26 19:42:00,
2013-03-26 11:53:00,-999.0,-99.9,30.15,NW,319,4.0,5.0,-999,-99.99,,,-99.99,,2013-03-26 19:53:00,
2013-03-26 12:02:00,-999.0,-99.9,30.16,NNW,332,3.0,5.0,-999,-99.99,,,-99.99,,2013-03-26 20:02:00,
2013-03-26 12:13:00,-999.0,-99.9,30.16,NW,317,5.0,8.0,-999,-99.99,,,-99.99,,2013-03-26 20:13:00,
2013-03-26 12:23:00,-999.0,-99.9,30.16,NW,304,8.0,9.0,-999,-99.99,,,-99.99,,2013-03-26 20:23:00,
2013-03-26 12:33:00,-999.0,-99.9,30.16,NW,324,3.0,5.0,-999,-99.99,,,-99.99,,2013-03-26 20:33:00,
2013-03-26 12:43:00,-5.0,-99.9,30.16,North,2,2.0,4.0,-999,-99.99,,,-99.99,,2013-03-26 20:43:00,
2013-03-26 12:53:00,-999.0,-99.9,30.17,West,281,0.0,2.0,-999,-99.99,,,-99.99,,2013-03-26 20:53:00,
2013-03-26 13:02:00,-999.0,-99.9,30.17,East,98,2.0,2.0,-999,-99.99,,,-99.99,,2013-03-26 21:02:00,
2013-03-26 13:13:00,-6.0,-99.9,30.17,SE,139,4.0,5.0,-999,-99.99,,,-99.99,,2013-03-26 21:13:00,
2013-03-26 13:23:00,-999.0,-99.9,30.18,SE,128,3.0,4.0,-999,-99.99,,,-99.99,,2013-03-26 21:23:00,
2013-03-26 13:33:00,-999.0,-99.9,30.18,SSE,153,5.0,6.0,-999,-99.99,,,-99.99,,2013-03-26 21:33:00,
2013-03-26 13:43:00,-5.0,-99.9,30.19,SSE,147,4.0,6.0,-999,-99.99,,,-99.99,,2013-03-26 21:43:00,
2013-03-26 13:53:00,-999.0,-99.9,30.19,ESE,119,3.0,4.0,-999,-99.99,,,-99.99,,2013-03-26 21:53:00,
2013-03-26 14:02:00,-999.0,-99.9,30.19,SSE,149,5.0,6.0,-999,-99.99,,,-99.99,,2013-03-26 22:02:00,
2013-03-26 14:12:00,-4.0,-99.9,30.19,SE,143,3.0,6.0,-999,-99.99,,,-99.99,,2013-03-26 22:12:00,
2013-03-26 14:23:00,-999.0,-99.9,30.19,ESE,104,3.0,3.0,-999,-99.99,,,-99.99,,2013-03-26 22:23:00,
2013-03-26 14:33:00,-999.0,-99.9,30.19,SE,146,2.0,3.0,-999,-99.99,,,-99.99,,2013-03-26 22:33:00,
2013-03-26 14:43:00,-999.0,-99.9,30.19,SW,231,2.0,3.0,-999,-99.99,,,-99.99,,2013-03-26 22:43:00,
2013-03-26 15:01:00,-999.0,-99.9,30.20,WSW,247,2.0,2.0,-999,-99.99,,,-99.99,,2013-03-26 23:01:00,
2013-03-26 15:23:00,-999.0,-99.9,30.20,SSE,156,2.0,3.0,-999,-99.99,,,-99.99,,2013-03-26 23:23:00,
2013-03-26 15:32:00,-999.0,-99.9,30.20,South,169,3.0,4.0,-999,-99.99,,,-99.99,,2013-03-26 23:32:00,
2013-03-26 15:43:00,-999.0,-99.9,30.20,SSE,161,2.0,2.0,-999,-99.99,,,-99.99,,2013-03-26 23:43:00,
2013-03-26 16:02:00,-999.0,-99.9,30.21,South,177,1.0,2.0,-999,-99.99,,,-99.99,,2013-03-27 00:02:00,
2013-03-26 16:12:00,1.0,-99.9,30.21,SW,226,2.0,3.0,-999,-99.99,,,-99.99,,2013-03-27 00:12:00,
2013-03-26 16:22:00,-999.0,-99.9,30.21,WSW,250,2.0,3.0,-999,-99.99,,,-99.99,,2013-03-27 00:22:00,
2013-03-26 16:33:00,-999.0,-99.9,30.21,NW,305,2.0,4.0,-999,-99.99,,,-99.99,,2013-03-27 00:33:00,
2013-03-26 16:42:00,-999.0,-99.9,30.21,West,278,2.0,3.0,-999,-99.99,,,-99.99,,2013-03-27 00:42:00,
2013-03-26 16:52:00,-999.0,-99.9,30.21,NW,317,3.0,4.0,-999,-99.99,,,-99.99,,2013-03-27 00:52:00,
2013-03-26 17:02:00,-999.0,-99.9,30.22,NW,312,3.0,3.0,-999,-99.99,,,-99.99,,2013-03-27 01:02:00,
2013-03-26 17:12:00,-1.0,-99.9,30.22,WNW,290,6.0,7.0,-999,-99.99,,,-99.99,,2013-03-27 01:12:00,
2013-03-26 17:23:00,-999.0,-99.9,30.22,WNW,296,6.0,7.0,-999,-99.99,,,-99.99,,2013-03-27 01:23:00,
2013-03-26 17:33:00,-999.0,-99.9,30.22,WNW,301,6.0,7.0,-999,-99.99,,,-99.99,,2013-03-27 01:33:00,
2013-03-26 17:43:00,-999.0,-99.9,30.22,WNW,301,8.0,9.0,-999,-99.99,,,-99.99,,2013-03-27 01:43:00,
2013-03-26 17:53:00,-999.0,-99.9,30.22,NW,305,8.0,10.0,-999,-99.99,,,-99.99,,2013-03-27 01:53:00,
2013-03-26 18:03:00,-999.0,-99.9,30.22,WNW,297,6.0,8.0,-999,-99.99,,,-99.99,,2013-03-27 02:03:00,
2013-03-26 18:12:00,-1.0,-99.9,30.22,WNW,299,5.0,7.0,-999,-99.99,,,-99.99,,2013-03-27 02:12:00,
2013-03-26 18:22:00,-999.0,-99.9,30.22,West,267,6.0,6.0,-999,-99.99,,,-99.99,,2013-03-27 02:22:00,
2013-03-26 18:32:00,-999.0,-99.9,30.22,WNW,282,8.0,9.0,-999,-99.99,,,-99.99,,2013-03-27 02:32:00,
2013-03-26 18:43:00,-1.0,-99.9,30.22,WNW,285,8.0,9.0,-999,-99.99,,,-99.99,,2013-03-27 02:43:00,
2013-03-26 18:53:00,-999.0,-99.9,30.22,WNW,285,8.0,10.0,-999,-99.99,,,-99.99,,2013-03-27 02:53:00,
2013-03-26 19:02:00,-999.0,-99.9,30.22,WNW,296,6.0,8.0,-999,-99.99,,,-99.99,,2013-03-27 03:02:00,
2013-03-26 19:12:00,-1.0,-99.9,30.22,WNW,287,5.0,6.0,-999,-99.99,,,-99.99,,2013-03-27 03:12:00,
2013-03-26 19:22:00,-999.0,-99.9,30.23,West,278,3.0,4.0,-999,-99.99,,,-99.99,,2013-03-27 03:22:00,
2013-03-26 19:43:00,4.0,-99.9,30.23,NW,304,-999.0,0.0,-999,-99.99,,,-99.99,,2013-03-27 03:43:00,
2013-03-26 19:53:00,-999.0,-99.9,30.23,South,187,1.0,2.0,-999,-99.99,,,-99.99,,2013-03-27 03:53:00,
2013-03-26 20:03:00,-999.0,-99.9,30.23,SE,124,2.0,2.0,-999,-99.99,,,-99.99,,2013-03-27 04:03:00,
2013-03-26 20:13:00,-1.0,-99.9,30.23,SE,126,3.0,4.0,-999,-99.99,,,-99.99,,2013-03-27 04:13:00,
2013-03-26 20:23:00,-999.0,-99.9,30.23,SE,146,3.0,4.0,-999,-99.99,,,-99.99,,2013-03-27 04:23:00,
2013-03-26 20:33:00,-999.0,-99.9,30.23,ESE,117,3.0,4.0,-999,-99.99,,,-99.99,,2013-03-27 04:33:00,
2013-03-26 20:43:00,-3.0,-99.9,30.23,SE,125,3.0,4.0,-999,-99.99,,,-99.99,,2013-03-27 04:43:00,
2013-03-26 20:53:00,-999.0,-99.9,30.23,SE,136,2.0,3.0,-999,-99.99,,,-99.99,,2013-03-27 04:53:00,
2013-03-26 21:03:00,-999.0,-99.9,30.24,ESE,123,2.0,3.0,-999,-99.99,,,-99.99,,2013-03-27 05:03:00,
2013-03-26 21:13:00,-999.0,-99.9,30.24,SE,128,1.0,2.0,-999,-99.99,,,-99.99,,2013-03-27 05:13:00,
2013-03-26 21:23:00,-999.0,-99.9,30.24,NNE,16,2.0,2.0,-999,-99.99,,,-99.99,,2013-03-27 05:23:00,
2013-03-26 21:33:00,-999.0,-99.9,30.24,NE,45,2.0,3.0,-999,-99.99,,,-99.99,,2013-03-27 05:33:00,
2013-03-26 21:42:00,-5.0,-99.9,30.24,West,264,1.0,4.0,-999,-99.99,,,-99.99,,2013-03-27 05:42:00,
2013-03-26 21:53:00,-999.0,-99.9,30.24,West,269,6.0,7.0,-999,-99.99,,,-99.99,,2013-03-27 05:53:00,
2013-03-26 22:02:00,-999.0,-99.9,30.24,West,274,5.0,6.0,-999,-99.99,,,-99.99,,2013-03-27 06:02:00,
2013-03-26 22:12:00,-12.0,-99.9,30.25,WNW,293,5.0,5.0,-999,-99.99,,,-99.99,,2013-03-27 06:12:00,
2013-03-26 22:23:00,-999.0,-99.9,30.24,NW,323,4.0,6.0,-999,-99.99,,,-99.99,,2013-03-27 06:23:00,
2013-03-26 22:32:00,-999.0,-99.9,30.24,NW,322,3.0,5.0,-999,-99.99,,,-99.99,,2013-03-27 06:32:00,
2013-03-26 22:43:00,-11.0,-99.9,30.24,NNW,336,3.0,4.0,-999,-99.99,,,-99.99,,2013-03-27 06:43:00,
2013-03-26 22:53:00,-999.0,-99.9,30.24,WNW,297,1.0,2.0,-999,-99.99,,,-99.99,,2013-03-27 06:53:00,
2013-03-26 23:02:00,-999.0,-99.9,30.24,NNE,20,4.0,4.0,-999,-99.99,,,-99.99,,2013-03-27 07:02:00,
2013-03-26 23:12:00,-8.0,-99.9,30.24,NNE,24,1.0,3.0,-999,-99.99,,,-99.99,,2013-03-27 07:12:00,
2013-03-26 23:22:00,-999.0,-99.9,30.24,NNE,16,1.0,1.0,-999,-99.99,,,-99.99,,2013-03-27 07:22:00,
2013-03-26 23:32:00,-999.0,-99.9,30.24,NNW,329,3.0,3.0,-999,-99.99,,,-99.99,,2013-03-27 07:32:00,
2013-03-26 23:43:00,-999.0,-99.9,30.24,NNW,336,4.0,4.0,-999,-99.99,,,-99.99,,2013-03-27 07:43:00,
2013-03-26 23:54:00,-999.0,-99.9,30.24,NNW,332,3.0,4.0,-999,-99.99,,,-99.99,,2013-03-27 07:54:00,